Location: Unspecified
(52.4292°N, 19.3359°E)
Time: 05:02:07
(UTC+02:00)

A-11 Canister half - Pass Details

Date: 16 April 2026
Orbit: 1515 x 1684 km, 47.2° (Epoch: 11 May)

Event Time Altitude Azimuth Distance (km) Brightness Sun altitude
Rises 04:48:03 0° 193° (SSW) 4,647 11.1 -8.5°
Reaches altitude 10° 04:51:55 10° 179° (S) 3,677 10.7 -8.0°
Maximum altitude 04:58:29 22° 133° (SE) 2,864 10.7 -7.1°
Drops below altitude 10° 05:05:09 10° 87° (E) 3,754 12.3 -6.2°
Sets 05:09:07 0° 74° (ENE) 4,769 13.9 -5.7°
